Location: Bakov nad Jizerou
(50.4784°N, 14.9394°E)
Time: 21:12:06
(UTC+00:00)

deb Kosmos-1375 - Visible Passes

Search period start: 24 January 2022 00:00
Search period end: 03 February 2022 00:00
Orbit: 974 x 1028 km, 65.8° (Epoch: 24 January)

Date Brightness Start Highest point End Pass type
(mag) Time Alt. Az. Time Alt. Az. Time Alt. Az.
24 Jan ? 17:16:38 10° WSW 17:22:36 41° NW 17:28:17 12° NNE visible
24 Jan ? 19:07:50 10° WNW 19:12:37 21° N 19:13:28 21° N visible
24 Jan ? 20:58:04 10° NW 20:58:39 12° NNW 20:58:39 12° NNW visible
25 Jan ? 17:51:13 10° W 17:56:39 28° NNW 18:00:53 15° NNE visible
25 Jan ? 19:42:25 10° NW 19:46:05 20° N 19:46:05 20° N visible
26 Jan ? 16:34:58 10° WSW 16:41:06 47° NW 16:47:16 10° NE visible
26 Jan ? 18:26:02 10° WNW 18:30:57 22° NNW 18:33:30 18° NNE visible
26 Jan ? 20:16:34 10° NW 20:18:41 17° NNW 20:18:41 17° NNW visible
27 Jan ? 17:09:27 10° W 17:15:05 31° NNW 17:20:45 10° NNE visible
27 Jan ? 19:00:45 10° NW 19:05:23 20° N 19:06:06 20° N visible
27 Jan ? 20:50:17 10° NNW 20:51:16 14° NNW 20:51:16 14° NNW visible
28 Jan ? 17:44:15 10° WNW 17:49:17 24° NNW 17:53:30 13° NNE visible
28 Jan ? 19:35:02 10° NW 19:38:41 20° N 19:38:41 20° N visible
28 Jan ? 21:23:47 10° NNW 21:23:52 10° NNW 21:23:52 10° NNW visible
29 Jan ? 16:27:43 10° W 16:33:31 35° NNW 16:39:21 10° NNE visible
29 Jan ? 18:19:01 10° NW 18:23:42 21° N 18:26:04 17° NNE visible
29 Jan ? 20:08:52 10° NW 20:11:15 19° NNW 20:11:15 19° NNW visible
30 Jan ? 17:02:27 10° WNW 17:07:40 26° NNW 17:12:56 10° NE visible
30 Jan ? 18:53:27 10° NW 18:58:10 21° N 18:58:38 21° NNE visible
30 Jan ? 20:42:25 10° NNW 20:43:49 16° NNW 20:43:49 16° NNW visible
31 Jan ? 17:37:16 10° WNW 17:42:02 21° N 17:46:02 13° NE visible
31 Jan ? 19:27:24 10° NW 19:31:13 23° N 19:31:13 23° N visible
31 Jan ? 21:15:50 10° NW 21:16:24 13° NW 21:16:24 13° NW visible
01 Feb ? 16:20:40 10° W 16:26:03 28° NNW 16:31:30 10° NNE visible
01 Feb ? 18:11:49 10° NW 18:16:29 20° N 18:18:36 18° NNE visible
01 Feb ? 20:01:01 10° NNW 20:03:48 23° NNW 20:03:48 23° NNW visible
02 Feb ? 16:55:29 10° WNW 17:00:21 22° NNW 17:05:16 10° NE visible
02 Feb ? 18:45:55 10° NW 18:50:55 23° NNE 18:51:12 23° NNE visible
02 Feb ? 20:34:27 10° NW 20:36:23 20° NNW 20:36:23 20° NNW visible
